Location: Emblem
(62.4273°N, 6.4710°E)
Time: 08:39:26
(UTC+01:00)

A-11 Canister half - Pass Details

Date: 01 December 2023
Orbit: 1512 x 1687 km, 47.2° (Epoch: 28 February)

Event Time Altitude Azimuth Distance (km) Brightness Sun altitude
Exits shadow 02:40:12 22° 128° (SE) 3,033 10.5 -43.1°
Drops below altitude 10° 02:44:55 10° 103° (ESE) 3,930 11.4 -42.7°
Sets 02:48:47 0° 91° (E) 4,935 12.2 -42.4°
